DELTA 1 DEB, 7040

Orbit data source: Space-Track

DELTA 1 DEB, 7040 is space debris in SSO originally from a launch on Tue, 06 Nov 1973 UTC launched from the Air Force Western Test Range (AFWTR). Debris objects in space refer to the collection of defunct objects orbiting the Earth. Examples of debris include non-operational satellites, rocket bodies, and fragments generated from explosions, collisions, or faulty payload assembly.

Loading next visibility...
Identifier
7040, 1973-086AG
Orbit
SSO
Country
Flag of USUS
Related business
Manufacturer
Unknown
Mission
Spacecraft
Bus & Motor
Unknown
Mass
Unknown
Launch date (UTC)
1973-11-06 (52 years ago)
Launch vehicle
Unknown
Launch site
Air Force Western Test Range (AFWTR)
Object type
Payload
Rocket body
Debris
Shape & HBR
Unknown shape, 0.1 m
Radar Cross Section
Small (<0.1 m²)

Expand to show TLE details & history
Last TLE update: 4 hours ago

TLE from 4 hours ago
0 DELTA 1 DEB
1  7040U 73086AG  25355.47119425  .00000079  00000-0  51925-3 0  9999
2  7040 102.5548 181.3317 0192333 116.5148 274.1039 12.82415916434454
Epoch: 2025-12-21T11:18Z
TLE epoch observation values (Epoch: 2025-12-21T11:18:31.183Z)
Latitude
27.72004°
Longitude
-85.26779°
Altitude
1,327.11 km
Speed
7.2 km/s
True Right ascension
11h 38m 34s
True Declination
27° 35' 21"
Sunlit
Object was in daylight at epoch
Visualization orbit readout
Latitude
Unknown
Longitude
Unknown
Altitude
Unknown
Speed
Unknown
Apparent Right ascension
Unknown
Apparent Declination
Unknown
Sunlit
N/A
Visualization observer readout
Local Sidereal Time
14:42:34
Azimuth
Unknown
Elevation
Unknown
Doppler factor
Unknown
Orbital elements
Apogee altitude
1,477.564 km
Perigee altitude
1,181.085 km
Semi-major axis
7,707.461 km
Eccentricity
0.01923
Inclination
102.5548°
RAAN
181.3317°
Arg. of periapsis
116.5148°
True anomaly
271.90233°
Mean anomaly
274.1039°
Eccentric anomaly
273.00343°
Mean motion
3.20757 °/min
Orbital period
112.23 mins
BSTAR
0.00051925
Loading maneuver chart data...
Computing Atmospheric mass density...
Loading historical data...
Loading historical data...
Loading historical data...
Loading historical data...
Loading historical data...
Loading historical data...
Loading historical data...

Documentation

Showing up to 5 results
|